Location: Armstrong
(40.9123°N, 82.0110°W)
Time: 07:31:08
(UTC+00:00)

Cosmos 1939 Rocket - Pass Details

Date: 29 October 2020
Orbit: 532 x 584 km, 97.4° (Epoch: 29 November)

Event Time Altitude Azimuth Distance (km) Brightness Sun altitude
Rises 23:16:32 0° 154° (SSE) 2,729 6.2 -9.9°
Reaches altitude 10° 23:18:43 10° 149° (SSE) 1,830 5.3 -10.3°
Maximum altitude 23:22:32 49° 74° (ENE) 716 3.0 -11.0°
Drops below altitude 10° 23:26:19 10° 359° (N) 1,816 5.4 -11.7°
Sets 23:28:29 0° 354° (N) 2,706 6.3 -12.1°
